Date String (YYYY-MM-DD hh:mm:ss) UTC,Instrument flags,absolute air pressure of the measurement (hPa),sample flow rate (lpm),inlet stack bypass flow (lpm),air temperature of the measurement (°C),ambient temperature measured by the external sensor (°C),aerosol sample conditioner tube jacket temperature (°C),OPC LED temperature (°C),internal box temperature (°C),relative humidity of the measurement (%),span deviation,mass concentration of particles derived from Lorenz-Mie calculation of OPC scattering (μg/m³),mass concentration of particles derived from Lorenz-Mie calculation of OPC scattering (μg/m³),mass concentration of particles derived from Lorenz-Mie calculation of OPC scattering (μg/m³)
DateTimeUTC,F1_M11,P_M11,Q1_M11,Q2_M11,T1_M11,T2_M11,T3_M11,T4_M11,T5_M11,U1_M11,ZSPAN_M11,X2_M11,X0_M11,X1_M11
2024-03-02 03:00:00,SystemResetWarning,0821.8,5.01,000.00,025.0,024.0,000.0,033.6,026.9,10.1,0000.0,0002.41,0007.08,0001.34
2024-03-02 03:01:00,SystemResetWarning,0821.8,5.01,000.00,025.0,024.0,000.0,033.6,026.9,10.0,0000.0,0002.41,0007.37,0001.34
2024-03-02 03:02:00,SystemResetWarning,0821.9,5.00,000.00,025.0,024.0,000.0,033.6,026.8,10.0,0000.0,0002.37,0007.37,0001.33
2024-03-02 03:03:00,SystemResetWarning,0821.9,5.00,000.00,025.0,024.0,000.0,033.6,026.8,10.0,0000.0,0002.31,0006.87,0001.32
2024-03-02 03:04:00,SystemResetWarning,0821.9,4.99,000.00,025.0,024.0,000.0,033.6,026.8,10.0,0000.0,0002.27,0006.62,0001.33
2024-03-02 03:05:00,SystemResetWarning,0821.8,5.00,000.00,025.0,024.0,000.0,033.6,026.8,10.0,0000.0,0002.24,0006.46,0001.32
2024-03-02 03:06:00,SystemResetWarning,0821.8,5.01,000.00,025.0,023.9,000.0,033.6,026.8,10.0,0000.0,0002.16,0006.11,0001.32
2024-03-02 03:07:00,SystemResetWarning,0821.8,5.00,000.00,024.9,023.9,000.0,033.5,026.8,10.0,0000.0,0002.12,0005.97,0001.31
2024-03-02 03:08:00,SystemResetWarning,0821.8,5.00,000.00,024.9,023.9,000.0,033.5,026.8,09.9,0000.0,0002.23,0006.42,0001.31
2024-03-02 03:09:00,SystemResetWarning,0821.8,5.01,000.00,024.9,023.9,000.0,033.5,026.8,09.9,0000.0,0002.25,0006.53,0001.33
2024-03-02 03:10:00,SystemResetWarning,0821.8,5.00,000.00,024.9,023.9,000.0,033.5,026.8,10.0,0000.0,0002.25,0006.70,0001.33
2024-03-02 03:11:00,SystemResetWarning,0821.8,5.00,000.00,024.9,023.9,000.0,033.5,026.8,09.9,0000.0,0002.28,0006.71,0001.33
2024-03-02 03:12:00,SystemResetWarning,0821.9,4.99,000.00,024.9,023.9,000.0,033.5,026.8,09.9,0000.0,0002.25,0005.72,0001.34
2024-03-02 03:13:00,SystemResetWarning,0821.9,5.00,000.00,024.9,023.9,000.0,033.5,026.8,09.9,0000.0,0002.25,0004.54,0001.35
2024-03-02 03:14:00,SystemResetWarning,0821.9,5.00,000.00,024.9,023.9,000.0,033.5,026.7,09.9,0000.0,0002.28,0004.53,0001.36
2024-03-02 03:15:00,SystemResetWarning,0821.9,5.01,000.00,024.9,023.9,000.0,033.5,026.7,09.9,0000.0,0002.31,0004.79,0001.37
2024-03-02 03:16:00,SystemResetWarning,0821.9,5.02,000.00,024.9,023.9,000.0,033.5,026.7,09.9,0000.0,0002.32,0006.18,0001.36
2024-03-02 03:17:00,SystemResetWarning,0821.9,5.00,000.00,024.9,023.9,000.0,033.5,026.7,09.9,0000.0,0002.32,0006.25,0001.37
2024-03-02 03:18:00,SystemResetWarning,0821.9,4.99,000.00,024.9,023.9,000.0,033.4,026.7,09.9,0000.0,0002.36,0006.48,0001.37
2024-03-02 03:19:00,SystemResetWarning,0821.8,4.99,000.00,024.9,023.9,000.0,033.4,026.7,09.8,0000.0,0002.38,0006.64,0001.38
2024-03-02 03:20:00,SystemResetWarning,0821.8,5.00,000.00,024.9,023.9,000.0,033.4,026.7,09.8,0000.0,0002.32,0006.45,0001.39
2024-03-02 03:21:00,SystemResetWarning,0821.8,5.00,000.00,024.8,023.9,000.0,033.4,026.7,09.9,0000.0,0002.30,0006.58,0001.39
2024-03-02 03:22:00,SystemResetWarning,0821.8,5.00,000.00,024.8,023.9,000.0,033.4,026.7,09.9,0000.0,0002.29,0006.42,0001.39
2024-03-02 03:23:00,SystemResetWarning,0821.8,5.01,000.00,024.8,023.9,000.0,033.4,026.6,09.9,0000.0,0002.26,0006.26,0001.38
2024-03-02 03:24:00,SystemResetWarning,0821.8,5.00,000.00,024.8,023.8,000.0,033.4,026.6,09.9,0000.0,0002.27,0006.28,0001.38
2024-03-02 03:25:00,SystemResetWarning,0821.8,4.99,000.00,024.8,023.8,000.0,033.4,026.6,09.8,0000.0,0002.28,0006.35,0001.38
2024-03-02 03:26:00,SystemResetWarning,0821.8,4.99,000.00,024.8,023.8,000.0,033.3,026.6,09.8,0000.0,0002.35,0006.42,0001.37
2024-03-02 03:27:00,SystemResetWarning,0821.8,5.00,000.00,024.8,023.8,000.0,033.3,026.6,09.8,0000.0,0002.37,0005.94,0001.37
2024-03-02 03:28:00,SystemResetWarning,0821.8,5.01,000.00,024.7,023.8,000.0,033.3,026.6,09.8,0000.0,0002.32,0005.87,0001.37
2024-03-02 03:29:00,SystemResetWarning,0821.8,5.00,000.00,024.7,023.8,000.0,033.3,026.5,09.8,0000.0,0002.26,0005.72,0001.38
2024-03-02 03:30:00,SystemResetWarning,0821.8,5.00,000.00,024.7,023.8,000.0,033.3,026.5,09.8,0000.0,0002.19,0006.11,0001.38
2024-03-02 03:31:00,SystemResetWarning,0821.8,4.99,000.00,024.7,023.7,000.0,033.3,026.5,09.8,0000.0,0002.20,0006.41,0001.36
2024-03-02 03:32:00,SystemResetWarning,0821.8,5.01,000.00,024.7,023.7,000.0,033.3,026.5,09.7,0000.0,0002.19,0006.74,0001.36
2024-03-02 03:33:00,SystemResetWarning,0821.8,5.00,000.00,024.7,023.7,000.0,033.3,026.5,09.7,0000.0,0002.18,0008.09,0001.34
2024-03-02 03:34:00,SystemResetWarning,0821.8,5.00,000.00,024.7,023.7,000.0,033.3,026.5,09.7,0000.0,0002.22,0008.67,0001.35
2024-03-02 03:35:00,SystemResetWarning,0821.7,5.00,000.00,024.7,023.7,000.0,033.2,026.5,09.7,0000.0,0002.24,0008.70,0001.34
2024-03-02 03:36:00,SystemResetWarning,0821.7,5.00,000.00,024.6,023.6,000.0,033.2,026.5,09.6,0000.0,0002.21,0008.69,0001.33
2024-03-02 03:37:00,SystemResetWarning,0821.7,5.00,000.00,024.6,023.6,000.0,033.2,026.5,09.6,0000.0,0002.15,0008.60,0001.32
2024-03-02 03:38:00,SystemResetWarning,0821.7,5.00,000.00,024.6,023.6,000.0,033.2,026.5,09.6,0000.0,0002.11,0008.29,0001.32
2024-03-02 03:39:00,SystemResetWarning,0821.7,5.00,000.00,024.6,023.6,000.0,033.2,026.4,09.6,0000.0,0002.18,0008.16,0001.32
2024-03-02 03:40:00,SystemResetWarning,0821.7,5.00,000.00,024.6,023.6,000.0,033.2,026.5,09.6,0000.0,0002.22,0008.22,0001.32
2024-03-02 03:41:00,SystemResetWarning,0821.7,4.99,000.00,024.6,023.6,000.0,033.2,026.4,09.6,0000.0,0002.31,0007.94,0001.32
2024-03-02 03:42:00,SystemResetWarning,0821.7,5.00,000.00,024.6,023.5,000.0,033.2,026.4,09.7,0000.0,0002.31,0007.71,0001.32
2024-03-02 03:43:00,SystemResetWarning,0821.7,5.01,000.00,024.6,023.5,000.0,033.2,026.4,09.6,0000.0,0002.35,0007.67,0001.31
2024-03-02 03:44:00,SystemResetWarning,0821.7,5.00,000.00,024.5,023.5,000.0,033.2,026.4,09.6,0000.0,0002.37,0006.41,0001.32
2024-03-02 03:45:00,SystemResetWarning,0821.7,4.99,000.00,024.5,023.5,000.0,033.1,026.3,09.6,0000.0,0002.39,0005.17,0001.32
2024-03-02 03:46:00,SystemResetWarning,0821.7,5.00,000.00,024.5,023.5,000.0,033.1,026.4,09.5,0000.0,0002.40,0005.96,0001.30
2024-03-02 03:47:00,SystemResetWarning,0821.7,5.00,000.00,024.5,023.5,000.0,033.1,026.3,09.6,0000.0,0002.37,0006.34,0001.30
2024-03-02 03:48:00,SystemResetWarning,0821.6,5.00,000.00,024.5,023.5,000.0,033.1,026.3,09.6,0000.0,0002.32,0006.20,0001.30
2024-03-02 03:49:00,SystemResetWarning,0821.7,5.01,000.00,024.5,023.5,000.0,033.1,026.3,09.5,0000.0,0002.31,0006.10,0001.30
2024-03-02 03:50:00,SystemResetWarning,0821.6,5.01,000.00,024.5,023.5,000.0,033.1,026.3,09.5,0000.0,0002.25,0005.99,0001.30
2024-03-02 03:51:00,SystemResetWarning,0821.7,5.01,000.00,024.5,023.5,000.0,033.1,026.3,09.6,0000.0,0002.26,0006.03,0001.29
2024-03-02 03:52:00,SystemResetWarning,0821.6,5.00,000.00,024.4,023.4,000.0,033.0,026.3,09.6,0000.0,0002.16,0005.80,0001.28
2024-03-02 03:53:00,SystemResetWarning,0821.6,5.00,000.00,024.4,023.4,000.0,033.0,026.3,09.6,0000.0,0002.10,0005.73,0001.28
2024-03-02 03:54:00,SystemResetWarning,0821.6,5.00,000.00,024.4,023.4,000.0,033.0,026.2,09.6,0000.0,0002.07,0005.96,0001.29
2024-03-02 03:55:00,SystemResetWarning,0821.6,5.00,000.00,024.4,023.4,000.0,033.0,026.2,09.6,0000.0,0002.06,0005.77,0001.29
2024-03-02 03:56:00,SystemResetWarning,0821.6,5.00,000.00,024.4,023.4,000.0,033.0,026.2,09.7,0000.0,0002.06,0005.81,0001.28
2024-03-02 03:57:00,SystemResetWarning,0821.7,5.00,000.00,024.4,023.4,000.0,033.0,026.2,09.7,0000.0,0002.01,0004.91,0001.28
2024-03-02 03:58:00,SystemResetWarning,0821.6,5.00,000.00,024.4,023.4,000.0,033.0,026.2,09.7,0000.0,0001.98,0004.20,0001.25
2024-03-02 03:59:00,SystemResetWarning,0821.6,4.99,000.00,024.4,023.4,000.0,032.9,026.2,09.7,0000.0,0001.99,0004.25,0001.24
